Shaw AFB, SC

2:31 PM EST on December 05, 2016 (GMT -0500)
Shaw Air Force Base

Weather History for KSSC - November, 2013

Change the Weather History Date:

Thursday, November 14, 2013

  Actual Average Record
Temperature  
Mean Temperature 42 °F -  
Max Temperature 58 °F 63 °F 80 °F (2005)
Min Temperature 25 °F 40 °F 25 °F (2013)
Degree Days  
Heating Degree Days 24    
Moisture  
Dew Point 21 °F    
Average Humidity 54    
Maximum Humidity 83    
Minimum Humidity 19    
Precipitation  
Precipitation 0.00 in - - ()
Sea Level Pressure  
Sea Level Pressure 30.43 in    
Wind  
Wind Speed 1 mph (WNW)    
Max Wind Speed 7 mph    
Max Gust Speed -    
Visibility 10 miles    
Events      
Averages and records for this station are not official NWS values.
T = Trace of Precipitation, MM = Missing Value Source: NWS Daily Summary

Daily Weather History Graph

Daily Weather History Graph

Search for Another Location

Airport or City:

Trip Planner

Search our weather history database for the weather conditions in past years. The results will help you decide how hot, cold, wet, or windy it might be!

Date:

Astronomy

Nov. 14, 2013 Rise Set
Actual Time 6:53 AM EST 5:18 PM EST
Civil Twilight 6:27 AM EST 5:45 PM EST
Nautical Twilight 5:56 AM EST 6:15 PM EST
Astronomical Twilight 5:27 AM EST 6:45 PM EST
Moon 3:32 PM EST (11/14) 3:54 AM EST (11/14)
Length of Visible Light 11h 18m
Length of Day
10h 25m
Waxing Gibbous, 91% of the Moon is Illuminated
Nov 14
Waxing Gibbous
Nov 17
Full
Nov 25
Last Quarter
Dec 2
New
Dec 9
First Quarter

Hourly Weather History & Observations

Time (EST) Temp. Dew Point Humidity Pressure Visibility Wind Dir Wind Speed Gust Speed Precip Events Conditions
12:58 AM 28.8 °F 22.6 °F 78% 30.47 in 10.0 mi Calm Calm - N/A   Clear
1:58 AM 28.0 °F 22.5 °F 80% 30.47 in 10.0 mi Calm Calm - N/A   Clear
2:58 AM 27.3 °F 22.3 °F 81% 30.47 in 10.0 mi Calm Calm - N/A   Clear
3:58 AM 29.5 °F 21.0 °F 71% 30.47 in 10.0 mi Calm Calm - N/A   Clear
4:58 AM 27.7 °F 21.6 °F 78% 30.47 in 10.0 mi Calm Calm - N/A   Clear
5:58 AM 25.7 °F 20.1 °F 79% 30.48 in 10.0 mi WSW 1.2 mph - N/A   Clear
6:58 AM 25.9 °F 20.5 °F 80% 30.50 in 10.0 mi WSW 1.2 mph - N/A   Clear
7:58 AM 29.5 °F 25.0 °F 83% 30.51 in 10.0 mi Calm Calm - N/A   Clear
8:58 AM 40.8 °F 25.7 °F 55% 30.51 in 10.0 mi Calm Calm - N/A   Clear
9:55 AM 46.4 °F 19.4 °F 34% 30.50 in 10.0 mi Variable 1.2 mph - N/A   Clear
10:55 AM 50.0 °F 15.8 °F 26% 30.50 in 10.0 mi Variable 6.9 mph - N/A   Clear
11:55 AM 51.8 °F 14.0 °F 22% 30.47 in 10.0 mi Variable 1.2 mph - N/A   Clear
11:59 AM 51.6 °F 14.4 °F 23% 30.48 in 10.0 mi Variable 2.3 mph - N/A   Clear
12:58 PM 54.3 °F 14.7 °F 21% 30.44 in 10.0 mi Variable 2.3 mph - N/A   Clear
1:58 PM 55.6 °F 15.4 °F 21% 30.41 in 10.0 mi NNW 5.8 mph - N/A   Clear
2:58 PM 58.1 °F 15.8 °F 19% 30.38 in 10.0 mi South 3.5 mph - 0.00 in   Clear
3:58 PM 58.6 °F 16.9 °F 20% 30.37 in 10.0 mi SW 3.5 mph - N/A   Clear
4:58 PM 56.7 °F 16.9 °F 21% 30.36 in 10.0 mi Calm Calm - N/A   Clear
5:58 PM 49.1 °F 24.6 °F 38% 30.36 in 10.0 mi NW 1.2 mph - N/A   Clear
6:58 PM 38.8 °F 27.5 °F 64% 30.38 in 10.0 mi NE 1.2 mph - 0.00 in   Clear
7:58 PM 37.6 °F 27.3 °F 66% 30.36 in 10.0 mi Calm Calm - 0.00 in   Clear
8:58 PM 37.9 °F 27.7 °F 67% 30.35 in 10.0 mi WNW 1.2 mph - N/A   Clear
9:58 PM 37.0 °F 27.1 °F 67% 30.34 in 10.0 mi North 1.2 mph - N/A   Clear
10:58 PM 36.3 °F 27.5 °F 70% 30.35 in 10.0 mi Calm Calm - N/A   Clear
11:58 PM 35.6 °F 29.5 °F 78% 30.34 in 10.0 mi North 2.3 mph - N/A   Clear